Terminal Aerodrome Forecast
Issued by NWS Milwaukee/Sullivan, WI

Home | Current Version | Previous Version | Text Only | Print | Product List | Glossary On
Versions: 1 2 3 4 5 6 7 8 9 10 11 12 13 14 15 16 17 18 19 20 21 22 23 24 25 26 27 28 29 30 31 32 33 34 35 36 37 38 39 40 41 42 43 44 45 46 47 48
000
FTUS43 KMKX 292058 AAB
TAFMSN
TAF AMD
KMSN 292058Z 2921/3018 21015G23KT P6SM VCSH OVC015
     FM292300 27015G22KT P6SM BKN015
     FM300300 30010KT P6SM FEW015
     FM300800 28006KT P6SM SKC=

USA.gov is the U.S. government's official web portal to all federal, state and local government web resources and services.